[[[{"header":{"parameterUnit":"kt","parameterCategory":2,"dx":1,"dy":1,"la1":30.253999710083008,"la2":30.299108505249023,"lo1":-89.0895004272461,"lo2":-89.04439544677734,"nx":28,"ny":28,"refTime":"2022-09-29T21:00:00:Z","depth":0,"parameterNumber":1,"parameterNumberName":"U-component_of_WINDS"},"data":[2.2533,2.255,2.2542,2.2559,2.2555,2.2566,2.2567,2.2569,2.2568,2.2581,2.2588,2.2583,2.258,2.2587,2.2595,2.2593,2.2598,2.2611,2.2606,2.2553,2.2545,2.2538,2.2533,2.2612,2.2612,2.2664,2.2664,2.2665,2.25,2.2495,2.2501,2.2501,2.2506,2.2489,2.2488,2.2495,2.2505,2.2503,2.2509,2.252,2.2528,2.252,2.2528,2.2538,2.2531,2.2541,2.2541,2.2542,2.2484,2.2478,2.2547,2.2547,2.2547,2.2547,2.2547,2.2547,2.2437,2.2447,2.2441,2.2447,2.2444,2.2445,2.2454,2.2445,2.2451,2.2456,2.2444,2.2456,2.2454,2.2458,2.2457,2.2467,2.2455,2.2464,2.2466,2.2469,2.2475,2.2406,2.2468,2.2468,2.2467,2.2467,2.2467,0,2.2388,2.238,2.2384,2.2386,2.2389,2.239,2.2389,2.2394,2.2374,2.238,2.2388,2.2392,2.2399,2.2407,2.2411,2.2408,2.2392,2.2388,2.2395,2.2402,2.2409,2.2408,2.2316,2.2387,2.2386,2.2385,2.2385,2.2385,2.2326,2.2338,2.2326,2.2331,2.2327,2.2334,2.2336,2.2317,2.232,2.2317,2.2328,2.2334,2.2338,2.2354,2.2344,2.235,2.2343,2.2371,2.2343,2.235,2.2346,2.2346,2.2349,2.2377,2.2378,2.2379,2.238,0,2.2293,2.2277,2.2292,2.2278,2.2276,2.2289,2.2279,2.2288,2.2278,2.229,2.2292,2.2276,2.2285,2.227,2.2276,2.2269,2.2297,2.2288,2.2299,2.2297,2.2323,2.2321,2.2403,2.2414,2.233,2.2331,2.2331,0,2.2235,2.225,2.2226,2.2235,2.2252,2.2231,2.225,2.2242,2.2237,2.2246,2.2223,2.2233,2.2211,2.2219,2.2208,2.2227,2.2228,2.2224,2.2221,2.2227,2.2228,2.223,2.2227,2.221,2.221,2.221,2.2209,0,2.2186,2.2189,2.2203,2.2201,2.2188,2.2196,2.2191,2.2184,2.2186,2.2187,2.2188,2.219,2.2192,2.2195,2.218,2.2162,2.2202,2.2175,2.2199,2.2199,2.2209,2.2209,2.2284,2.2209,2.2209,2.2208,2.2208,0,2.2136,2.2134,2.2156,2.2145,2.2147,2.2156,2.2156,2.216,2.2155,2.2147,2.2147,2.213,2.2143,2.2118,2.2136,2.2118,2.2122,2.2118,2.2119,2.2121,2.2093,2.214,2.2211,2.2219,2.2122,2.2121,2.2121,0,2.2086,2.2102,2.2083,2.2105,2.211,2.2084,2.2094,2.2089,2.208,2.2084,2.2074,2.208,2.2057,2.2056,2.2067,2.2058,2.2082,2.2054,2.2065,2.2066,2.207,2.2134,2.215,2.2197,2.2111,2.2112,2.2113,0,2.2044,2.2025,2.2029,2.2027,2.2014,2.2018,2.2029,2.2029,2.2033,2.2028,2.2039,2.2044,2.2028,2.2027,2.2012,2.2025,2.2065,2.2006,2.2005,2.2019,2.2104,2.2119,2.2126,2.2053,2.2054,2.2055,2.2105,0,2.1977,2.1982,2.1993,2.1985,2.1985,2.1996,2.1977,2.198,2.1965,2.1954,2.1968,2.1958,2.1958,2.1961,2.1946,2.1979,2.1971,2.1953,2.1927,2.1969,2.1986,2.1992,2.1905,2.1904,2.1903,2.1903,0,0,2.1935,2.194,2.1917,2.1925,2.1924,2.1894,2.1908,2.1903,2.1894,2.1895,2.188,2.1886,2.1878,2.1897,2.1909,2.1907,2.1913,2.1897,2.1949,2.1954,2.1959,2.1976,2.1983,2.1902,2.1901,2.1901,2.1901,0,2.1906,2.1895,2.1908,2.1902,2.1891,2.1877,2.1881,2.1865,2.1858,2.1869,2.1845,2.1851,2.1855,2.1851,2.1849,2.1895,2.1877,2.1896,2.1927,2.1942,2.1948,2.1954,2.1972,2.1979,2.1899,2.1899,2.1899,0,2.1863,2.185,2.1853,2.1846,2.1838,2.1843,2.1811,2.1817,2.1822,2.1789,2.18,2.1792,2.1784,2.1802,2.181,2.1796,2.1847,2.1826,2.183,2.1831,2.1844,2.1851,2.1858,2.1771,2.1771,2.177,0,0,2.1841,2.1844,2.1823,2.1838,2.1835,2.1814,2.1814,2.1799,2.1791,2.1788,2.1776,2.177,2.1773,2.1775,2.1775,2.1798,2.1796,2.1811,2.1817,2.1822,2.1825,2.184,2.1847,2.1769,2.1769,2.1769,0,0,2.1831,2.1807,2.1793,2.1807,2.18,2.1781,2.1791,2.1774,2.1772,2.1768,2.1744,2.1741,2.1757,2.175,2.1734,2.1766,2.1741,2.1744,2.1771,2.1778,2.1784,2.1786,2.17,0,0,0,0,0,2.179,2.181,2.1797,2.1796,2.1785,2.1788,2.1786,2.1765,2.1749,2.1758,2.1746,2.1725,2.1737,2.1722,2.1722,2.174,2.1751,2.1754,2.1757,2.1796,2.1804,2.1811,0,0,0,0,0,0,2.1789,2.1788,2.1797,2.1778,2.1776,2.1787,2.1754,2.1749,2.1747,2.1743,2.1728,2.1725,2.1708,2.172,2.1721,2.1739,2.1699,2.1753,2.1755,2.1758,2.1799,2.1805,2.1811,0,0,0,0,0,2.1789,2.1788,2.1776,2.1778,2.1776,2.1753,2.1753,2.1748,2.1747,2.1727,2.1723,2.1731,2.1709,2.1708,2.172,2.1739,2.1699,2.1699,2.1754,2.1756,2.1758,2.1802,0,0,0,0,0,0,2.1788,2.1784,2.1775,2.1773,2.1768,2.1752,2.1749,2.1748,2.173,2.1726,2.1728,2.1725,2.171,2.1709,2.1708,2.174,2.1698,2.1699,2.1699,2.1756,2.1758,2.1759,0,0,0,0,0,0,2.1785,2.1783,2.1774,2.1763,2.176,2.1751,2.1748,2.1755,2.173,2.1732,2.1729,2.1727,2.1711,2.171,2.1709,2.1721,2.1698,2.1698,2.1699,2.1699,2.1757,2.1759,0,0,0,0,0,0,2.1784,2.1783,2.1763,2.1761,2.1758,2.1741,2.1757,2.1748,2.172,2.1734,2.1717,2.1715,2.1713,2.1712,2.171,2.1722,2.1721,2.1698,2.1698,2.1698,2.1699,0,0,0,0,0,0,0,2.1783,2.1795,2.1783,2.1759,2.1757,2.1761,2.176,2.176,2.1719,2.1718,2.1717,2.1716,2.1697,2.1697,2.1697,2.1723,0,0,2.1698,2.1698,0,0,0,0,0,0,0,0,2.1795,2.1795,2.1783,2.1783,2.1782,2.176,2.176,2.176,2.1719,2.1718,2.1717,2.1716,2.1697,2.1697,2.1697,0,0,0,0,0,0,0,0,0,0,0,0,0,0,0,2.1783,2.1783,0,2.176,2.176,2.176,2.1719,2.1718,2.1717,2.1717,2.1697,2.1697,2.1697,0,0,0,0,0,0,0,0,0,0,0,0,0,0,0,0,0,0,0,0,0,0,0,0,0,0,0,0,0,0,0,0,0,0,0,0,0,0,0,0,0,0,0,0,0,0,0,0,0,0,0,0,0,0,0,0,0,0,0,0,0,0,0,0,0,0,0,0,0]}],[{"header":{"parameterUnit":"kt","parameterCategory":2,"dx":1,"dy":1,"la1":30.253999710083008,"la2":30.299108505249023,"lo1":-89.0895004272461,"lo2":-89.04439544677734,"nx":28,"ny":28,"refTime":"2022-09-29T21:00:00:Z","depth":0,"parameterNumber":2,"parameterNumberName":"V-component_of_WINDS"},"data":[-6.2727,-6.2766,-6.2791,-6.2846,-6.2876,-6.2917,-6.2939,-6.297,-6.3,-6.3051,-6.3084,-6.3109,-6.3147,-6.319,-6.3225,-6.3235,-6.3249,-6.3247,-6.3259,-6.3249,-6.3249,-6.3249,-6.3242,-6.325,-6.325,-6.3267,-6.3267,-6.3268,-6.2722,-6.2754,-6.2789,-6.284,-6.2871,-6.2888,-6.2928,-6.2952,-6.2988,-6.3024,-6.3057,-6.3102,-6.314,-6.3178,-6.3217,-6.3235,-6.3244,-6.3244,-6.3243,-6.3249,-6.3238,-6.3231,-6.3236,-6.3236,-6.3236,-6.3236,-6.3236,-6.3236,-6.272,-6.2742,-6.2786,-6.2825,-6.2856,-6.2889,-6.2913,-6.2945,-6.2979,-6.3024,-6.3043,-6.3082,-6.3121,-6.3178,-6.3202,-6.3233,-6.3236,-6.3242,-6.3244,-6.3245,-6.3244,-6.3219,-6.324,-6.324,-6.324,-6.324,-6.324,0,-6.2725,-6.2744,-6.2778,-6.2821,-6.285,-6.2884,-6.2918,-6.2934,-6.2977,-6.3002,-6.3041,-6.3066,-6.3116,-6.3153,-6.3194,-6.3217,-6.3234,-6.3238,-6.3242,-6.3234,-6.3223,-6.3231,-6.3214,-6.3236,-6.3236,-6.3236,-6.3236,-6.3236,-6.2725,-6.2746,-6.2803,-6.2824,-6.2849,-6.2881,-6.2906,-6.2942,-6.2966,-6.3012,-6.3028,-6.3066,-6.3099,-6.3154,-6.3187,-6.3223,-6.3231,-6.3238,-6.3236,-6.3229,-6.3233,-6.3231,-6.3234,-6.3237,-6.3237,-6.3237,-6.3237,0,-6.2723,-6.276,-6.28,-6.2852,-6.2866,-6.2886,-6.2931,-6.2952,-6.2979,-6.3013,-6.3022,-6.3064,-6.3099,-6.3132,-6.3177,-6.3193,-6.3226,-6.3233,-6.3214,-6.3218,-6.3228,-6.3226,-6.3252,-6.3257,-6.3249,-6.3249,-6.3249,0,-6.2737,-6.2763,-6.2817,-6.2838,-6.2868,-6.2904,-6.2933,-6.2959,-6.2992,-6.3019,-6.3044,-6.3068,-6.3105,-6.3134,-6.3157,-6.3189,-6.3197,-6.3211,-6.3217,-6.3209,-6.3208,-6.3221,-6.3221,-6.3228,-6.3227,-6.3227,-6.3227,0,-6.273,-6.2788,-6.2822,-6.2841,-6.2898,-6.2913,-6.2937,-6.2974,-6.2996,-6.303,-6.3044,-6.308,-6.3099,-6.3126,-6.3155,-6.3153,-6.3195,-6.3198,-6.3209,-6.3209,-6.3216,-6.3215,-6.3231,-6.3227,-6.3227,-6.3227,-6.3227,0,-6.2746,-6.2781,-6.2825,-6.2874,-6.2887,-6.2908,-6.2948,-6.2974,-6.3011,-6.3027,-6.3053,-6.3073,-6.3103,-6.3105,-6.3147,-6.3137,-6.3154,-6.317,-6.3171,-6.3176,-6.3176,-6.3181,-6.3192,-6.3195,-6.3181,-6.318,-6.318,0,-6.2729,-6.2783,-6.2814,-6.2854,-6.2883,-6.2911,-6.2935,-6.2967,-6.2991,-6.3018,-6.3044,-6.3073,-6.3081,-6.3094,-6.3111,-6.3138,-6.3151,-6.3137,-6.3175,-6.3176,-6.3166,-6.3176,-6.317,-6.3186,-6.3175,-6.3176,-6.3176,0,-6.272,-6.2789,-6.2793,-6.2817,-6.2864,-6.2888,-6.2915,-6.2953,-6.297,-6.3001,-6.3025,-6.3066,-6.3075,-6.3095,-6.3114,-6.313,-6.3143,-6.3135,-6.3137,-6.3137,-6.3175,-6.317,-6.3172,-6.3152,-6.3153,-6.3153,-6.3173,0,-6.2739,-6.2769,-6.2784,-6.2831,-6.2854,-6.288,-6.2915,-6.2934,-6.2952,-6.2976,-6.301,-6.3041,-6.3077,-6.3087,-6.3102,-6.3128,-6.3128,-6.3135,-6.3138,-6.3144,-6.3151,-6.3154,-6.3125,-6.3125,-6.3125,-6.3126,0,0,-6.2714,-6.2758,-6.2789,-6.2817,-6.2839,-6.2866,-6.289,-6.2914,-6.2959,-6.2973,-6.2975,-6.3037,-6.3061,-6.3099,-6.3104,-6.3117,-6.3125,-6.312,-6.3141,-6.3142,-6.3144,-6.3151,-6.3153,-6.3126,-6.3126,-6.3126,-6.3126,0,-6.2728,-6.2756,-6.278,-6.2806,-6.2846,-6.287,-6.2876,-6.2919,-6.2935,-6.2968,-6.2988,-6.3012,-6.3058,-6.3083,-6.3101,-6.3117,-6.313,-6.3125,-6.3124,-6.3142,-6.3143,-6.3144,-6.3151,-6.3153,-6.3127,-6.3127,-6.3127,0,-6.2726,-6.2759,-6.2774,-6.2823,-6.2849,-6.2876,-6.2889,-6.2916,-6.2937,-6.2961,-6.2993,-6.3014,-6.3048,-6.3079,-6.3093,-6.3095,-6.3133,-6.3125,-6.3125,-6.3127,-6.3146,-6.3147,-6.3148,-6.3131,-6.3131,-6.3131,0,0,-6.2733,-6.2761,-6.2806,-6.2829,-6.2844,-6.2879,-6.2896,-6.2915,-6.2946,-6.2958,-6.2985,-6.3013,-6.3041,-6.3058,-6.3086,-6.3114,-6.3124,-6.3125,-6.3124,-6.3124,-6.3126,-6.3145,-6.3146,-6.3131,-6.3131,-6.3131,0,0,-6.2736,-6.279,-6.2802,-6.2833,-6.2863,-6.2907,-6.2919,-6.2934,-6.2962,-6.2963,-6.2993,-6.3001,-6.303,-6.3049,-6.304,-6.3087,-6.3089,-6.3092,-6.3074,-6.3074,-6.3074,-6.3068,-6.3055,0,0,0,0,0,-6.2768,-6.2784,-6.2794,-6.2804,-6.2864,-6.2902,-6.2909,-6.2936,-6.2938,-6.2947,-6.2973,-6.2984,-6.3051,-6.3044,-6.3053,-6.3062,-6.3126,-6.3126,-6.3127,-6.3111,-6.311,-6.311,0,0,0,0,0,0,-6.2772,-6.2785,-6.2794,-6.2838,-6.2852,-6.2901,-6.2911,-6.2918,-6.2938,-6.294,-6.2979,-6.2986,-6.3007,-6.3041,-6.3049,-6.3057,-6.3053,-6.3126,-6.3127,-6.3127,-6.3111,-6.311,-6.311,0,0,0,0,0,-6.2776,-6.2786,-6.2875,-6.2838,-6.285,-6.2889,-6.291,-6.2917,-6.2932,-6.297,-6.2977,-6.295,-6.3007,-6.3015,-6.3046,-6.3053,-6.3048,-6.305,-6.3126,-6.3127,-6.3128,-6.311,0,0,0,0,0,0,-6.2778,-6.2791,-6.2878,-6.2883,-6.2834,-6.2887,-6.2896,-6.2915,-6.2962,-6.2969,-6.2942,-6.2943,-6.3007,-6.3013,-6.3019,-6.305,-6.3044,-6.3046,-6.3048,-6.3127,-6.3127,-6.3128,0,0,0,0,0,0,-6.2786,-6.2795,-6.288,-6.2874,-6.2878,-6.2884,-6.2893,-6.2922,-6.2962,-6.2931,-6.2933,-6.2942,-6.2997,-6.3012,-6.3017,-6.306,-6.304,-6.3043,-6.3045,-6.3046,-6.3127,-6.3128,0,0,0,0,0,0,-6.279,-6.2798,-6.2873,-6.2876,-6.2879,-6.2932,-6.291,-6.2969,-6.2958,-6.2928,-6.2958,-6.2957,-6.2995,-6.3001,-6.3015,-6.3056,-6.3059,-6.3041,-6.3042,-6.3044,-6.3044,0,0,0,0,0,0,0,-6.2794,-6.2736,-6.2851,-6.2877,-6.2881,-6.2925,-6.2926,-6.2927,-6.2958,-6.2958,-6.2958,-6.2957,-6.3026,-6.3028,-6.3031,-6.3053,0,0,-6.304,-6.3042,0,0,0,0,0,0,0,0,-6.2734,-6.2736,-6.2851,-6.2852,-6.2853,-6.2925,-6.2926,-6.2927,-6.2958,-6.2958,-6.2958,-6.2957,-6.3026,-6.3029,-6.3031,0,0,0,0,0,0,0,0,0,0,0,0,0,0,0,-6.2851,-6.2852,0,-6.2925,-6.2926,-6.2927,-6.2958,-6.2958,-6.2958,-6.2958,-6.3027,-6.3029,-6.3031,0,0,0,0,0,0,0,0,0,0,0,0,0,0,0,0,0,0,0,0,0,0,0,0,0,0,0,0,0,0,0,0,0,0,0,0,0,0,0,0,0,0,0,0,0,0,0,0,0,0,0,0,0,0,0,0,0,0,0,0,0,0,0,0,0,0,0,0,0]}]]]